Regional Weather Roundup
Issued by NWS

Home | Current Version | Previous Version | Text Only | Print | Product List | Glossary Off
Versions: 1 2 3 4 5 6 7 8 9 10 11 12 13 14 15 16 17 18 19 20 21 22 23 24 25 26 27 28 29 30 31 32 33 34 35 36 37 38 39 40 41 42 43 44 45 46 47 48 49 50

000
ASUS44 KMEG 242010
RWRTN
TENNESSEE HOURLY STATE WEATHER ROUNDUP
NATIONAL WEATHER SERVICE MEMPHIS TN
200 PM CST FRI FEB 24 2017

TNZ002-004-019-021-049-052-054-088>092-242100-
WEST TENNESSEE

CITY           SKY/WX    TMP DP  RH WIND       PRES   REMARKS
MEMPHIS INTL   CLOUDY    67  57  70 SW15G21   29.69S
NWS MEMPHIS      N/A     66 N/A N/A MISG        N/A
JACKSON        PTSUNNY   72  56  57 W21G32    29.68R
UNION CITY     CLOUDY    64  54  68 SW16      29.64S
PARIS          SUNNY     72  54  53 SW23      29.62R
HUNTINGDON     MOSUNNY   73  55  53 W14G24    29.63R
$$

TNZ008-025-027-028-033-062-065-066-242100-
NORTH MIDDLE TENNESSEE

CITY           SKY/WX    TMP DP  RH WIND       PRES   REMARKS
NASHVILLE      PTSUNNY   80  52  37 S23G37    29.65F
PORTLAND       MOSUNNY   77  54  44 S23G33    29.63F
CLARKSVILLE    SUNNY     80  46  30 SW22G35   29.59F
SMYRNA         MOSUNNY   78  55  44 S21G30    29.65F
COOKEVILLE     MOSUNNY   79  54  41 SW18G25   29.68F
GALLATIN       PTSUNNY   79  54  41 S17G37    29.66F
CROSSVILLE     MOSUNNY   71  53  52 S13G23    29.76F
$$

TNZ061-075-076-078-094-096-097-242100-
SOUTH MIDDLE TENNESSEE

CITY           SKY/WX    TMP DP  RH WIND       PRES   REMARKS
FAYETTEVILLE   PTSUNNY   77  55  47 S21G28    29.71F
TULLAHOMA      MOSUNNY   77  50  38 S17       29.71F
WINCHESTER     SUNNY     75  55  50 S21       29.72F
MCMINNVILLE    MOSUNNY   79  55  44 S10       29.71F
COLUMBIA       MOSUNNY   79  54  41 S21       29.65F
SHELBYVILLE    MOSUNNY   81  57  44 S21       29.69F
$$

TNZ017-018-042-046-047-242100-
NORTHEAST TENNESSEE

CITY           SKY/WX    TMP DP  RH WIND       PRES   REMARKS
TRI CITIES     MOSUNNY   76  48  37 SW8       29.77F
ELIZABETHTON   SUNNY     77  48  36 SE8G17    29.77F
$$

TNZ012-013-036-069-073-074-242100-
CENTRAL EAST TENNESSEE

CITY           SKY/WX    TMP DP  RH WIND       PRES   REMARKS
KNOXVILLE      PTSUNNY   78  51  38 SW18      29.73F
OAK RIDGE      PTSUNNY   77  52  41 S8G21     29.75F
GATLINBURG     SUNNY     81  48  32 VRB3      29.73F
MORRISTOWN     SUNNY     75  52  43 SW9       29.75F
JACKSBORO      SUNNY     75  54  46 SW21      29.77S
$$

TNZ083-085-099-242100-
SOUTHEAST TENNESSEE

CITY           SKY/WX    TMP DP  RH WIND       PRES   REMARKS
CHATTANOOGA    PTSUNNY   78  54  43 S12       29.75F
$$

SKY/WX REPORTED AS FAIR MEANS FEW OR NO CLOUDS BELOW
12 THOUSAND FEET.




USA.gov is the U.S. government's official web portal to all federal, state and local government web resources and services.